Location: Hackbridge
(51.3833°N, 0.1500°W)
Time: 08:44:48
(UTC+00:00)

STARLINK-58 - Pass Details

Date: 13 October 2019
Orbit: 548 x 551 km, 53.0° (Epoch: 13 November)

Event Time Altitude Azimuth Distance (km) Brightness Sun altitude
Rises 19:36:21 0° 248° (WSW) 2,712 7.9 -23.0°
Reaches altitude 10° 19:38:34 10° 248° (WSW) 1,821 6.9 -23.4°
Enters shadow 19:42:12 67° 233° (SW) 600 3.8 -23.9°
